Terug naar catalogus

COSMOS 2251 DEB

ActiefLEO
NORAD 34882·DEBRIS·🇷🇺 Russia

Gelanceerd Jun 16, 1993 vanaf Plesetsk Cosmodrome

Loading…

Volgende Passages (komende 24 uur)

TLE

VersSource: Space-Track

Epoch: Sep 14, 2026, 10:28 UTC

1 34882U 93036ACV 26257.43637952  .00000605  00000-0  12118-3 0  9994
2 34882  74.0460  58.2509 0080865 115.2617 245.6958 14.62010397925533

Volg COSMOS 2251 DEB in realtime met AllMySat

Download on the App Store